Time,TemperatureF,DewpointF,PressureIn,WindDirection,WindDirectionDegrees,WindSpeedMPH,WindSpeedGustMPH,Humidity,HourlyPrecipIn,Conditions,Clouds,dailyrainin,SoftwareType,DateUTC
2013-01-17 00:00:00,10.0,4.0,-100.00,North,-999,-999.0,-999.0,76,-99.99,,,0.00,,2013-01-17 07:00:00,
2013-01-17 00:53:00,10.0,4.0,-100.00,North,-999,-999.0,-999.0,76,-99.99,,,0.00,,2013-01-17 07:53:00,
2013-01-17 02:00:00,7.0,1.0,-100.00,North,-999,-999.0,-999.0,75,-99.99,,,0.00,,2013-01-17 09:00:00,
2013-01-17 02:52:00,7.0,1.0,-100.00,North,-999,-999.0,-999.0,75,-99.99,,,0.00,,2013-01-17 09:52:00,
2013-01-17 03:00:00,6.0,0.0,-100.00,North,-999,-999.0,-999.0,76,-99.99,,,0.00,,2013-01-17 10:00:00,
2013-01-17 03:53:00,6.0,0.0,-100.00,North,-999,-999.0,-999.0,76,-99.99,,,0.00,,2013-01-17 10:53:00,
2013-01-17 04:00:00,7.0,1.0,-100.00,North,-999,-999.0,-999.0,76,-99.99,,,0.00,,2013-01-17 11:00:00,
2013-01-17 04:53:00,7.0,1.0,-100.00,North,-999,-999.0,-999.0,76,-99.99,,,0.00,,2013-01-17 11:53:00,
2013-01-17 05:00:00,8.0,2.0,-100.00,North,-999,-999.0,-999.0,76,-99.99,,,0.00,,2013-01-17 12:00:00,
2013-01-17 05:53:00,8.0,2.0,-100.00,North,-999,-999.0,-999.0,76,-99.99,,,0.00,,2013-01-17 12:53:00,
2013-01-17 06:00:00,8.0,2.0,-100.00,North,-999,-999.0,-999.0,76,-99.99,,,0.00,,2013-01-17 13:00:00,
2013-01-17 06:53:00,8.0,2.0,-100.00,North,-999,-999.0,-999.0,76,-99.99,,,0.00,,2013-01-17 13:53:00,
2013-01-17 07:00:00,7.0,1.0,-100.00,North,-999,-999.0,-999.0,76,-99.99,,,-99.99,,2013-01-17 14:00:00,
2013-01-17 07:53:00,7.0,1.0,-100.00,North,-999,-999.0,-999.0,76,-99.99,,,-99.99,,2013-01-17 14:53:00,
2013-01-17 08:00:00,9.0,3.0,-100.00,North,-999,-999.0,-999.0,76,-99.99,,,-99.99,,2013-01-17 15:00:00,
2013-01-17 08:53:00,9.0,3.0,-100.00,North,-999,-999.0,-999.0,76,-99.99,,,-99.99,,2013-01-17 15:53:00,
2013-01-17 09:00:00,15.0,9.0,-100.00,North,-999,-999.0,-999.0,76,-99.99,,,-99.99,,2013-01-17 16:00:00,
2013-01-17 09:53:00,15.0,9.0,-100.00,North,-999,-999.0,-999.0,76,-99.99,,,-99.99,,2013-01-17 16:53:00,
2013-01-17 10:00:00,24.0,17.0,-100.00,North,-999,-999.0,-999.0,76,-99.99,,,-99.99,,2013-01-17 17:00:00,
2013-01-17 10:53:00,24.0,17.0,-100.00,North,-999,-999.0,-999.0,76,-99.99,,,-99.99,,2013-01-17 17:53:00,
2013-01-17 11:00:00,31.0,24.0,-100.00,North,-999,-999.0,-999.0,76,-99.99,,,-99.99,,2013-01-17 18:00:00,
2013-01-17 11:53:00,31.0,24.0,-100.00,North,-999,-999.0,-999.0,76,-99.99,,,-99.99,,2013-01-17 18:53:00,
2013-01-17 12:00:00,36.0,29.0,-100.00,North,-999,-999.0,-999.0,76,-99.99,,,-99.99,,2013-01-17 19:00:00,
2013-01-17 12:53:00,36.0,29.0,-100.00,North,-999,-999.0,-999.0,76,-99.99,,,-99.99,,2013-01-17 19:53:00,
2013-01-17 13:00:00,38.0,31.0,-100.00,North,-999,-999.0,-999.0,76,-99.99,,,-99.99,,2013-01-17 20:00:00,
2013-01-17 13:54:00,38.0,31.0,-100.00,North,-999,-999.0,-999.0,76,-99.99,,,-99.99,,2013-01-17 20:54:00,
2013-01-17 14:00:00,34.0,27.0,-100.00,North,-999,-999.0,-999.0,76,-99.99,,,0.00,,2013-01-17 21:00:00,
2013-01-17 14:53:00,34.0,27.0,-100.00,North,-999,-999.0,-999.0,76,-99.99,,,0.00,,2013-01-17 21:53:00,
2013-01-17 15:00:00,33.0,27.0,-100.00,North,-999,-999.0,-999.0,76,-99.99,,,0.00,,2013-01-17 22:00:00,
2013-01-17 15:53:00,33.0,27.0,-100.00,North,-999,-999.0,-999.0,76,-99.99,,,0.00,,2013-01-17 22:53:00,
2013-01-17 16:00:00,30.0,23.0,-100.00,North,-999,-999.0,-999.0,76,-99.99,,,0.00,,2013-01-17 23:00:00,
2013-01-17 16:53:00,30.0,23.0,-100.00,North,-999,-999.0,-999.0,76,-99.99,,,0.00,,2013-01-17 23:53:00,
2013-01-17 17:00:00,26.0,19.0,-100.00,North,-999,-999.0,-999.0,76,-99.99,,,0.00,,2013-01-18 00:00:00,
2013-01-17 17:53:00,26.0,19.0,-100.00,North,-999,-999.0,-999.0,76,-99.99,,,0.00,,2013-01-18 00:53:00,
2013-01-17 18:00:00,22.0,16.0,-100.00,North,-999,-999.0,-999.0,76,-99.99,,,0.00,,2013-01-18 01:00:00,
2013-01-17 18:53:00,22.0,16.0,-100.00,North,-999,-999.0,-999.0,76,-99.99,,,0.00,,2013-01-18 01:53:00,
2013-01-17 19:00:00,20.0,14.0,-100.00,North,-999,-999.0,-999.0,76,-99.99,,,0.00,,2013-01-18 02:00:00,
2013-01-17 19:53:00,20.0,14.0,-100.00,North,-999,-999.0,-999.0,76,-99.99,,,0.00,,2013-01-18 02:53:00,
2013-01-17 20:00:00,20.0,14.0,-100.00,North,-999,-999.0,-999.0,76,-99.99,,,0.00,,2013-01-18 03:00:00,
2013-01-17 20:53:00,20.0,14.0,-100.00,North,-999,-999.0,-999.0,76,-99.99,,,0.00,,2013-01-18 03:53:00,
2013-01-17 21:00:00,20.0,13.0,-100.00,North,-999,-999.0,-999.0,76,-99.99,,,0.00,,2013-01-18 04:00:00,
2013-01-17 21:53:00,20.0,13.0,-100.00,North,-999,-999.0,-999.0,76,-99.99,,,0.00,,2013-01-18 04:53:00,
2013-01-17 22:00:00,18.0,12.0,-100.00,North,-999,-999.0,-999.0,76,-99.99,,,0.00,,2013-01-18 05:00:00,
2013-01-17 22:53:00,18.0,12.0,-100.00,North,-999,-999.0,-999.0,76,-99.99,,,0.00,,2013-01-18 05:53:00,
2013-01-17 23:00:00,19.0,13.0,-100.00,North,-999,-999.0,-999.0,76,-99.99,,,0.00,,2013-01-18 06:00:00,
2013-01-17 23:53:00,19.0,13.0,-100.00,North,-999,-999.0,-999.0,76,-99.99,,,0.00,,2013-01-18 06:53:00,